TimeCST,TemperatureF,Dew PointF,Humidity,Sea Level PressureIn,VisibilityMPH,Wind Direction,Wind SpeedMPH,Gust SpeedMPH,PrecipitationIn,Events,Conditions,WindDirDegrees,DateUTC
12:53 AM,46.0,33.1,61,30.35,10.0,NNE,11.5,-,N/A,,Clear,20,2012-11-24 06:53:00
1:53 AM,42.1,32.0,67,30.36,10.0,North,9.2,-,N/A,,Clear,10,2012-11-24 07:53:00
2:53 AM,39.9,30.0,68,30.36,10.0,North,10.4,-,N/A,,Clear,10,2012-11-24 08:53:00
3:53 AM,39.0,28.0,65,30.36,10.0,NNE,9.2,-,N/A,,Clear,20,2012-11-24 09:53:00
4:53 AM,39.0,27.0,62,30.37,10.0,North,9.2,-,N/A,,Clear,360,2012-11-24 10:53:00
5:53 AM,37.0,27.0,67,30.38,10.0,North,9.2,-,N/A,,Clear,10,2012-11-24 11:53:00
6:53 AM,35.1,26.1,70,30.40,10.0,North,5.8,-,N/A,,Clear,10,2012-11-24 12:53:00
7:53 AM,39.9,26.1,58,30.41,10.0,North,10.4,-,N/A,,Clear,10,2012-11-24 13:53:00
8:53 AM,43.0,26.1,51,30.42,10.0,North,11.5,-,N/A,,Clear,10,2012-11-24 14:53:00
9:53 AM,46.0,25.0,44,30.42,10.0,NE,8.1,-,N/A,,Clear,50,2012-11-24 15:53:00
10:53 AM,48.9,25.0,39,30.40,10.0,NE,4.6,-,N/A,,Clear,50,2012-11-24 16:53:00
11:53 AM,50.0,24.1,36,30.35,10.0,North,8.1,-,N/A,,Clear,350,2012-11-24 17:53:00
12:53 PM,52.0,21.9,31,30.32,10.0,Variable,4.6,-,N/A,,Clear,0,2012-11-24 18:53:00
1:53 PM,53.1,21.9,30,30.29,10.0,North,6.9,-,N/A,,Clear,360,2012-11-24 19:53:00
2:53 PM,54.0,21.9,29,30.28,10.0,Variable,4.6,-,N/A,,Clear,0,2012-11-24 20:53:00
3:53 PM,53.1,19.9,27,30.28,10.0,Calm,Calm,-,N/A,,Clear,0,2012-11-24 21:53:00
4:53 PM,46.9,23.0,39,30.27,10.0,Calm,Calm,-,N/A,,Clear,0,2012-11-24 22:53:00
5:53 PM,36.0,23.0,59,30.27,10.0,NW,3.5,-,N/A,,Clear,320,2012-11-24 23:53:00
6:53 PM,32.0,24.1,73,30.27,10.0,North,4.6,-,N/A,,Clear,350,2012-11-25 00:53:00
8:53 PM,26.1,21.0,81,30.26,10.0,Calm,Calm,-,N/A,,Clear,0,2012-11-25 02:53:00
9:53 PM,25.0,21.9,88,30.25,10.0,Calm,Calm,-,N/A,,Clear,0,2012-11-25 03:53:00
10:53 PM,24.1,21.0,88,30.24,10.0,Calm,Calm,-,N/A,,Clear,0,2012-11-25 04:53:00
11:53 PM,23.0,19.9,88,30.22,10.0,Calm,Calm,-,N/A,,Clear,0,2012-11-25 05:53:00